User: anonymous   Login
Location: Lango�lan
(48.1202°N, 3.2340°W)
Time: 05:32:17
(UTC+00:00)
Language:

Meteor 1-31 Rocket - Orbit

View from above orbital plane
View from above orbital plane
View from above satellite
View from above satellite

Ground track
Ground track

The orbit data is extracted from the following two-line orbital elements,

1 12586U 81065B   19344.45902135  .00000084  00000-0  90488-5 0  9998
2 12586  97.6005 323.1837 0018098 334.1817  25.8507 15.10627362 93294
Epoch (UTC): 10 December 2019 11:00:59
Eccentricity: 0.0018098
inclination: 97.6005°
perigee height: 522 km
apogee height: 547 km
right ascension of ascending node: 323.1837°
argument of perigee: 334.1817°
revolutions per day: 15.10627362
mean anomaly at epoch: 25.8507°
orbit number at epoch: 9329

The dashed part of the orbit path shows where the satellite is in the earth's shadow,  

DLR